Weather History for Watertown, NY

Change the Weather History Date:

Saturday, April 6, 2013

  Actual Average Record
Temperature  
Mean Temperature 31 °F 40 °F  
Max Temperature 46 °F 50 °F 73 °F (1988)
Min Temperature 16 °F 30 °F 11 °F (1995)
Degree Days  
Heating Degree Days 34 25  
Month to date heating degree days 187 158  
Since 1 July heating degree days 6045 6665  
Cooling Degree Days 0 0  
Month to date cooling degree days 0 0  
Year to date cooling degree days 0 0  
Moisture  
Dew Point 11 °F    
Average Humidity 52    
Maximum Humidity 80    
Minimum Humidity 24    
Precipitation  
Precipitation 0.00 in 0.09 in 1.10 in (1958)
Month to date precipitation 0.07 0.55  
Year to date precipitation 5.36 7.73  
Sea Level Pressure  
Sea Level Pressure 30.26 in    
Wind  
Wind Speed 5 mph (North)    
Max Wind Speed 14 mph    
Max Gust Speed 20 mph    
Visibility 10 miles    
Events      
T = Trace of Precipitation, MM = Missing Value Source: NWS Daily Summary

Daily Weather History Graph

Daily Weather History Graph

Search for Another Location

Airport:

Trip Planner

Search our weather history database for the weather conditions in past years. The results will help you decide how hot, cold, wet, or windy it might be!

Date:

Astronomy

Apr. 06, 2013 Rise Set
Actual Time 6:36 AM EDT 7:37 PM EDT
Civil Twilight 6:06 AM EDT 8:06 PM EDT
Nautical Twilight 5:31 AM EDT 8:42 PM EDT
Astronomical Twilight 4:54 AM EDT 9:19 PM EDT
Moon 4:26 AM EDT (4/6) 3:57 PM EDT (4/6)
Length of Visible Light 14h 00m
Length of Day
13h 01m
Waning Crescent, 15% of the Moon is Illuminated
Apr 6
Waning Crescent
Apr 10
New
Apr 18
First Quarter
Apr 25
Full
May 2
Last Quarter

Hourly Weather History & Observations

Time (EDT) Temp. Windchill Dew Point Humidity Pressure Visibility Wind Dir Wind Speed Gust Speed Precip Events Conditions
12:56 AM 28.9 °F 25.2 °F 14.0 °F 54% 30.14 in 10.0 mi North 3.5 mph - N/A   Partly Cloudy
1:56 AM 26.1 °F 19.4 °F 14.0 °F 60% 30.17 in 10.0 mi NNW 5.8 mph - N/A   Clear
2:56 AM 25.0 °F 20.7 °F 14.0 °F 63% 30.20 in 10.0 mi NNW 3.5 mph - N/A   Clear
3:56 AM 23.0 °F 14.7 °F 12.9 °F 65% 30.23 in 10.0 mi North 6.9 mph - N/A   Clear
4:56 AM 25.0 °F 16.3 °F 9.0 °F 51% 30.26 in 10.0 mi North 8.1 mph - N/A   Clear
5:56 AM 21.9 °F 17.2 °F 9.0 °F 58% 30.28 in 10.0 mi NE 3.5 mph - N/A   Clear
6:56 AM 16.0 °F - 10.0 °F 77% 30.30 in 10.0 mi Calm Calm - N/A   Clear
7:56 AM 26.1 °F - 12.0 °F 55% 30.32 in 10.0 mi Calm Calm - N/A   Clear
8:56 AM 30.0 °F 21.1 °F 9.0 °F 41% 30.34 in 10.0 mi North 10.4 mph - N/A   Clear
9:56 AM 33.1 °F 24.4 °F 6.1 °F 32% 30.34 in 10.0 mi North 11.5 mph - N/A   Clear
10:56 AM 34.0 °F 29.8 °F 6.1 °F 31% 30.35 in 10.0 mi NNE 4.6 mph - N/A   Clear
11:56 AM 36.0 °F 33.3 °F 3.9 °F 26% 30.35 in 10.0 mi North 3.5 mph - N/A   Clear
12:56 PM 37.9 °F 34.4 °F 3.9 °F 24% 30.33 in 10.0 mi Variable 4.6 mph - N/A   Clear
1:56 PM 39.0 °F 33.4 °F 10.0 °F 30% 30.32 in 10.0 mi West 8.1 mph - N/A   Clear
2:56 PM 39.9 °F 35.8 °F 9.0 °F 28% 30.30 in 10.0 mi SW 5.8 mph - N/A   Clear
3:56 PM 39.0 °F 31.8 °F 12.9 °F 34% 30.29 in 10.0 mi WSW 11.5 mph 19.6 mph N/A   Clear
4:56 PM 37.9 °F 32.7 °F 12.9 °F 36% 30.28 in 10.0 mi SW 6.9 mph - N/A   Clear
5:56 PM 39.0 °F - 10.0 °F 30% 30.26 in 10.0 mi Calm Calm - N/A   Clear
6:56 PM 37.9 °F 35.5 °F 12.9 °F 36% 30.25 in 10.0 mi WNW 3.5 mph - N/A   Clear
7:56 PM 36.0 °F - 15.1 °F 43% 30.24 in 10.0 mi Calm Calm - N/A   Overcast
8:56 PM 36.0 °F 33.3 °F 16.0 °F 44% 30.22 in 10.0 mi East 3.5 mph - N/A   Mostly Cloudy
9:56 PM 35.1 °F 30.1 °F 18.0 °F 50% 30.19 in 10.0 mi East 5.8 mph - N/A   Mostly Cloudy
10:56 PM 36.0 °F 32.1 °F 19.0 °F 50% 30.16 in 10.0 mi ENE 4.6 mph - N/A   Overcast
11:56 PM 39.9 °F - 15.1 °F 36% 30.12 in 10.0 mi Calm Calm - N/A   Mostly Cloudy